Location: Unspecified
(0.0000°N, 0.0000°E)
Time: 12:28:46
(UTC+00:00)

deb r/b Ablestar - Pass Details

Date: 19 April 2026
Orbit: 834 x 1371 km, 65.9° (Epoch: 10 May)

Event Time Altitude Azimuth Distance (km) Brightness Sun altitude
Exits shadow 04:40:31 23° 225° (SW) 2,251 ? -19.3°
Maximum altitude 04:45:07 53° 291° (WNW) 1,476 ? -18.2°
Drops below altitude 10° 04:52:56 10° 6° (N) 3,333 ? -16.2°
Sets 04:55:59 0° 11° (N) 4,346 ? -15.5°
